User: anonymous   Login
Location: Celina Division
(33.3022°N, 96.7580°W)
Time: 07:29:22
(UTC+00:00)
Language:

DUCHIFAT 1 - Orbit

View from above orbital plane
View from above orbital plane
View from above satellite
View from above satellite

Ground track
Ground track

The orbit data is extracted from the following two-line orbital elements,

1 40021U 14033M   24109.90721044  .00024904  00000-0  17440-2 0  9998
2 40021  98.0867  90.7970 0011449 306.2265  53.7901 15.05177502535205
Epoch (UTC): 18 April 2024 21:46:22
Eccentricity: 0.0011449
inclination: 98.0867°
perigee height: 543 km
apogee height: 559 km
right ascension of ascending node: 90.7970°
argument of perigee: 306.2265°
revolutions per day: 15.05177502
mean anomaly at epoch: 53.7901°
orbit number at epoch: 53520

The dashed part of the orbit path shows where the satellite is in the earth's shadow,  

DLR